Wind_Speed
77 73 70 70 64 57 53 50 49 49 49 31 27 29 28 18 18 21 18 12 8 9 3 4 9 14 19 21 22 25 26 29 30 32 28 31 31 32 32 33 33 34 34 33
79 77 74 71 67 64 58 53 52 45 51 50 45 34 40 38 25 30 20 18 14 11 7 4 6 11 21 22 22 21 24 25 28 30 28 26 28 30 30 32 32 31 32 33
84 84 79 74 71 68 63 57 58 58 50 43 44 54 47 40 36 32 26 23 21 14 11 2 6 10 16 18 23 19 22 21 24 27 28 26 25 25 29 29 32 30 29 29
87 83 80 78 76 73 67 60 62 63 58 47 32 49 47 48 40 32 34 27 20 17 16 9 5 9 12 15 19 18 17 17 17 18 22 20 24 24 25 28 27 30 28 25
87 84 83 82 80 77 72 66 62 55 70 55 50 56 53 54 47 42 37 30 24 20 19 15 8 8 7 10 13 14 13 13 15 14 16 19 18 20 21 22 25 27 27 26
88 86 86 85 84 81 75 76 85 69 72 71 52 55 53 56 50 43 42 37 31 24 21 17 14 13 7 4 7 8 11 9 9 10 12 15 16 14 16 18 18 21 24 24
80 79 85 86 86 82 80 81 80 77 69 72 66 51 54 56 55 50 47 43 41 34 30 27 20 19 16 7 8 4 6 7 7 6 8 9 12 14 15 18 19 20 22 23
82 82 83 86 84 85 85 83 80 79 81 79 75 68 47 59 58 56 53 50 42 35 34 31 23 22 23 16 8 4 3 3 3 4 5 3 6 10 13 12 13 16 18 19
84 85 84 85 87 88 87 84 82 81 78 76 81 79 75 67 62 59 57 54 50 42 39 40 34 34 26 17 14 9 6 4 3 5 5 3 2 4 8 10 12 12 12 12
86 85 84 85 87 87 86 86 85 82 80 78 74 73 68 68 69 65 63 57 48 44 44 42 37 40 35 25 20 17 13 10 8 8 10 5 5 3 4 2 5 5 9 9
82 85 83 83 82 85 88 86 84 82 82 81 76 76 62 75 66 67 62 57 52 50 42 47 45 45 39 36 29 22 22 20 14 15 14 9 7 8 5 6 5 5 1 3
83 87 84 81 84 85 89 89 87 86 81 80 83 75 50 79 65 70 67 61 54 55 50 49 53 49 46 43 37 32 26 27 22 23 17 16 14 9 13 8 6 10 10 7
87 85 86 85 86 86 85 86 88 86 87 87 86 85 87 82 80 67 66 63 58 58 57 59 55 51 52 46 46 40 33 32 27 29 31 27 22 20 14 16 11 14 14 15
85 87 87 91 89 86 85 84 87 89 88 86 88 91 85 86 77 71 66 66 61 61 59 53 51 52 54 51 47 45 43 38 36 37 34 30 22 25 26 21 16 18 19 17
85 90 92 87 89 88 85 85 87 88 87 90 93 95 88 86 80 80 79 77 72 70 68 59 51 51 52 48 50 51 49 47 43 40 38 32 27 28 29 27 22 24 22 24
84 89 88 86 90 90 89 87 85 86 90 89 94 90 57 78 91 84 90 80 81 76 69 69 64 48 57 55 49 43 46 50 48 46 49 47 42 40 31 34 31 31 28 27
76 81 87 90 90 88 91 92 90 89 93 94 98 91 86 59 75 95 87 95 80 84 85 84 79 79 72 59 60 60 57 51 51 52 56 56 54 49 46 37 41 35 35 32
73 75 81 86 88 87 94 91 93 91 89 88 88 90 72 84 105 95 93 90 92 93 81 69 71 70 79 84 62 58 51 49 50 54 52 51 55 59 59 51 42 42 38 40
73 73 72 78 76 85 90 91 97 98 92 91 95 89 96 100 99 96 95 93 94 98 95 90 78 74 72 69 75 58 62 61 54 54 58 61 55 63 61 59 47 53 49 48
78 76 78 80 82 82 97 93 92 93 92 86 101 92 93 94 97 97 96 97 96 98 97 94 92 85 84 79 82 83 74 67 66 67 70 60 61 57 52 58 53 47 58 58
69 84 87 83 84 86 91 91 93 96 95 104 96 99 94 93 93 92 95 98 101 100 98 98 98 98 96 87 83 75 72 77 72 76 73 64 61 65 67 69 66 58 54 60
68 75 89 87 84 80 81 83 97 99 98 98 100 100 98 97 95 95 95 96 98 101 102 102 101 100 101 104 98 94 88 81 81 77 81 73 73 71 76 78 72 65 67 63
55 66 76 86 85 83 82 80 83 89 94 99 99 99 98 101 98 96 97 97 97 97 100 103 104 103 102 101 99 98 98 92 88 81 80 78 76 77 79 77 70 74 75 63
40 52 62 73 81 85 86 82 80 78 79 86 93 98 99 99 102 103 99 99 99 99 98 99 102 103 104 103 101 97 97 97 99 96 97 92 94 95 94 95 88 88 80 77
28 36 49 57 71 83 87 83 81 80 77 77 81 88 98 100 101 103 105 104 101 101 102 102 100 101 103 103 103 101 100 100 99 100 104 103 104 99 94 97 95 97 97 91
18 25 31 43 56 67 77 84 85 82 79 78 76 80 87 97 100 102 105 107 106 105 105 104 103 103 102 102 102 104 105 104 103 104 104 105 106 110 109 106 103 102 101 102
Wind_Direction
211 208 209 208 206 204 204 202 197 202 206 180 201 197 175 209 241 234 256 265 280 257 216 51 42 52 53 48 54 57 58 61 56 54 54 55 61 61 60 60 60 63 64 64
209 207 207 208 205 206 205 200 192 206 207 207 210 205 210 224 227 246 253 255 263 250 214 110 78 67 62 51 46 56 59 58 58 56 59 57 59 63 63 62 62 64 67 67
207 208 205 206 206 205 203 200 202 202 199 210 224 226 226 228 232 237 249 250 254 240 220 168 115 89 66 55 37 47 60 60 65 63 60 57 57 57 62 64 63 63 66 69
208 207 206 205 205 205 203 198 189 203 197 194 199 218 223 225 225 241 238 237 236 228 243 222 160 105 73 43 43 38 51 66 70 57 61 51 57 58 58 57 65 66 62 66
210 207 207 204 205 205 203 200 178 206 206 200 217 228 225 223 223 215 229 230 228 229 235 226 183 190 96 35 28 33 42 59 77 75 59 58 58 56 49 47 54 59 64 63
210 208 209 206 205 204 203 201 202 201 201 205 203 219 222 225 223 224 232 222 231 240 225 229 210 205 201 12 3 26 27 55 64 90 76 67 59 51 44 41 36 45 55 59
206 209 211 210 206 203 206 207 203 200 204 208 204 215 217 217 221 229 229 225 232 240 243 235 233 219 237 260 292 344 19 17 57 55 90 66 60 64 66 59 51 43 42 51
203 206 209 211 208 205 208 207 209 208 208 209 210 209 220 223 226 228 228 230 233 241 243 243 224 227 244 243 263 285 316 345 341 52 58 15 62 67 74 75 60 49 27 31
208 208 207 210 211 207 209 207 210 212 212 212 214 216 219 225 223 226 229 234 240 229 230 239 247 244 238 251 241 261 250 250 307 342 333 352 115 99 101 84 77 68 54 41
210 209 207 209 211 210 211 211 210 212 215 215 214 214 217 226 225 225 229 233 234 226 228 236 246 247 239 239 247 249 252 240 263 315 325 299 189 165 141 78 79 87 69 32
210 212 208 210 211 212 213 212 213 213 215 217 214 218 215 221 226 226 226 228 226 226 231 241 239 238 238 241 242 251 250 248 253 273 301 296 232 189 205 323 289 290 67 69
209 212 210 210 211 212 213 214 213 213 215 218 220 210 200 208 212 225 228 226 226 228 212 231 239 237 234 236 245 251 254 242 244 257 280 287 274 245 246 286 293 278 282 251
211 211 212 213 212 212 213 214 215 214 214 216 218 216 218 220 218 224 226 226 221 223 227 231 233 235 235 238 244 250 247 241 246 253 263 276 274 260 261 257 282 287 282 264
212 213 214 214 213 214 213 214 216 216 216 216 219 221 221 223 220 216 214 220 218 220 218 228 236 238 245 243 246 248 246 250 255 250 259 267 251 262 261 252 261 283 273 284
212 214 216 213 215 216 215 217 216 217 217 217 219 220 220 226 223 215 212 216 217 214 217 214 226 230 237 237 239 247 248 250 249 247 257 253 240 265 256 245 254 268 271 270
214 213 214 217 215 217 218 218 218 218 218 218 222 219 216 243 233 224 214 212 215 216 214 220 225 227 233 227 233 235 249 255 251 248 249 246 250 259 261 252 251 261 259 265
213 216 215 218 218 215 219 220 219 221 220 220 222 216 197 224 220 222 219 219 212 215 226 227 231 233 226 229 235 245 248 250 244 254 246 246 248 253 263 256 257 246 250 249
214 213 215 218 220 218 219 221 222 223 225 225 227 222 199 231 230 223 222 220 219 213 229 225 232 233 234 231 235 226 231 237 235 233 244 244 254 263 265 257 249 240 242 248
213 214 217 216 220 226 221 221 222 222 223 226 229 224 220 226 228 226 225 224 223 227 228 230 230 227 232 234 226 227 237 236 230 230 240 252 255 262 261 259 259 239 244 242
212 212 215 213 213 209 219 218 223 224 219 227 229 225 227 226 229 227 227 227 226 227 229 231 230 228 228 226 224 232 236 228 233 242 248 243 253 251 250 256 252 253 243 243
215 212 215 217 218 223 223 222 223 224 221 223 228 224 224 227 230 229 228 229 230 229 230 231 232 231 232 230 229 228 234 234 239 238 245 244 238 242 245 252 263 246 247 246
218 214 217 220 219 222 226 223 225 224 224 225 228 228 227 227 229 231 231 230 231 232 232 232 233 234 235 235 232 233 232 234 233 241 248 244 245 244 249 248 255 253 248 248
219 220 220 222 221 221 226 227 230 227 227 228 229 229 228 229 229 231 233 233 233 233 234 235 235 236 237 238 239 237 237 235 234 238 231 237 236 234 242 245 244 242 243 247
223 224 224 223 223 225 226 227 230 231 228 229 230 230 228 229 230 231 232 235 235 236 235 235 236 238 239 239 240 240 241 240 239 237 234 237 239 237 245 241 244 248 245 244
223 226 227 226 226 225 227 228 231 233 233 231 231 232 231 230 230 231 233 234 235 237 238 238 237 238 239 240 241 241 242 242 242 241 237 238 238 240 245 240 243 241 244 244
222 223 226 227 228 230 230 229 230 234 237 236 232 233 233 232 230 231 232 233 234 236 237 239 240 241 240 240 241 242 242 243 243 244 244 244 243 241 244 245 245 245 242 243
Height
10887 10901 10911 10922 10938 10952 10960 10972 10981 10987 10991 10994 10996 10998 11002 11002 11007 11011 11013 11016 11017 11018 11019 11017 11017 11015 11014 11013 11010 11006 11003 11000 10998 10996 10995 10992 10988 10985 10982 10979 10975 10972 10970 10969
10873 10884 10898 10915 10932 10940 10952 10966 10972 10979 10984 10988 10989 10994 10997 11001 11007 11007 11012 11014 11016 11018 11019 11017 11018 11017 11017 11016 11014 11010 11007 11006 11004 11002 11001 10999 10995 10993 10989 10986 10982 10980 10978 10976
10855 10866 10886 10904 10917 10931 10944 10958 10964 10970 10977 10984 10983 10986 10992 10997 11002 11006 11009 11012 11015 11017 11018 11018 11019 11018 11018 11018 11017 11014 11011 11010 11009 11007 11006 11005 11003 11000 10997 10994 10990 10986 10984 10982
10843 10862 10880 10892 10904 10919 10935 10949 10957 10964 10971 10975 10974 10976 10984 10991 10998 11003 11006 11010 11013 11016 11017 11018 11019 11019 11019 11019 11019 11018 11015 11014 11013 11013 11010 11011 11009 11006 11003 11000 10997 10993 10991 10989
10834 10853 10864 10877 10892 10907 10925 10943 10953 10945 10958 10966 10967 10970 10978 10983 10993 10997 11001 11006 11009 11013 11016 11018 11017 11019 11019 11020 11020 11020 11018 11017 11016 11017 11016 11015 11013 11011 11009 11006 11004 11001 10998 10996
10821 10839 10850 10864 10878 10896 10916 10922 10926 10935 10944 10951 10965 10962 10972 10977 10985 10991 10996 11002 11005 11010 11013 11016 11017 11018 11020 11021 11021 11020 11020 11020 11020 11019 11019 11018 11015 11014 11013 11011 11009 11008 11006 11002
10816 10825 10838 10852 10868 10889 10896 10906 10918 10929 10937 10944 10950 10956 10963 10970 10978 10985 10990 10995 11001 11005 11010 11013 11016 11018 11019 11021 11021 11020 11020 11022 11022 11021 11021 11021 11019 11017 11016 11015 11014 11013 11012 11009
10796 10806 10824 10839 10856 10870 10877 10893 10907 10917 10927 10935 10942 10947 10955 10963 10969 10976 10983 10988 10994 11001 11004 11008 11013 11016 11018 11020 11021 11020 11020 11022 11023 11023 11022 11022 11022 11020 11020 11019 11017 11018 11017 11014
10783 10793 10807 10822 10834 10851 10864 10882 10891 10901 10915 10923 10927 10941 10948 10952 10961 10968 10973 10979 10987 10996 11000 11003 11009 11011 11015 11019 11019 11019 11019 11020 11022 11024 11024 11023 11023 11023 11023 11022 11021 11021 11021 11020
10772 10784 10798 10809 10821 10841 10854 10862 10875 10890 10899 10909 10921 10927 10936 10945 10951 10959 10965 10973 10980 10988 10994 10998 11003 11006 11011 11015 11017 11018 11019 11018 11020 11022 11023 11024 11023 11024 11024 11024 11024 11023 11022 11023
10762 10774 10789 10801 10816 10828 10837 10850 10866 10878 10885 10895 10909 10918 10944 10935 10938 10948 10957 10965 10973 10980 10988 10985 10995 11001 11007 11010 11012 11015 11017 11017 11018 11019 11021 11022 11023 11023 11024 11025 11026 11025 11023 11023
10748 10756 10776 10791 10798 10809 10820 10833 10847 10859 10878 10887 10891 10920 10899 10914 10927 10935 10946 10957 10965 10970 10982 10974 10987 10996 11003 11004 11005 11008 11011 11014 11015 11017 11020 11022 11022 11023 11024 11024 11026 11026 11025 11024
10730 10749 10763 10774 10784 10794 10810 10824 10835 10847 10854 10864 10873 10886 10893 10904 10915 10929 10935 10946 10955 10962 10966 10974 10979 10991 10993 10994 10997 11000 11004 11009 11011 11013 11015 11019 11020 11020 11022 11023 11024 11025 11026 11025
10725 10734 10748 10755 10770 10783 10797 10809 10819 10830 10840 10855 10861 10864 10883 10887 10905 10918 10928 10932 10943 10952 10960 10965 10969 10977 10979 10984 10987 10990 10996 11001 11005 11007 11010 11012 11016 11017 11018 11021 11022 11023 11023 11024
10705 10717 10725 10751 10760 10771 10785 10794 10802 10815 10830 10833 10836 10843 10869 10881 10899 10908 10914 10921 10931 10937 10946 10954 10959 10962 10968 10971 10975 10979 10985 10990 10995 10999 11002 11004 11008 11011 11013 11015 11017 11019 11019 11019
10689 10698 10720 10735 10743 10757 10771 10779 10794 10802 10808 10819 10819 10849 10909 10888 10892 10897 10904 10907 10916 10927 10936 10942 10950 10957 10957 10960 10964 10969 10972 10979 10983 10988 10992 10995 11000 11003 11007 11009 11011 11013 11013 11014
10675 10692 10705 10712 10725 10745 10753 10762 10774 10783 10787 10797 10800 10845 10879 10835 10838 10871 10883 10893 10906 10914 10918 10926 10934 10942 10947 10949 10953 10960 10965 10970 10973 10973 10978 10982 10987 10992 10997 11003 11004 11006 11007 11007
10664 10677 10687 10702 10714 10730 10729 10750 10761 10771 10785 10794 10806 10830 10871 10826 10832 10852 10865 10878 10887 10895 10898 10906 10916 10923 10931 10940 10945 10946 10954 10957 10961 10962 10963 10968 10973 10977 10984 10992 10995 10997 10998 11001
10652 10667 10679 10691 10705 10713 10724 10732 10737 10748 10769 10778 10780 10810 10818 10812 10823 10837 10850 10863 10872 10874 10881 10890 10899 10905 10916 10924 10932 10933 10939 10946 10948 10951 10952 10958 10961 10963 10968 10974 10982 10986 10987 10990
10640 10652 10662 10672 10673 10676 10690 10712 10722 10736 10759 10737 10756 10783 10792 10798 10799 10819 10830 10841 10852 10859 10868 10874 10883 10894 10895 10906 10913 10919 10924 10929 10935 10939 10942 10947 10948 10949 10953 10957 10965 10971 10978 10979
10627 10638 10643 10653 10660 10672 10683 10694 10704 10707 10733 10727 10739 10755 10772 10780 10789 10799 10808 10818 10829 10839 10850 10857 10866 10875 10879 10888 10899 10905 10910 10917 10920 10923 10927 10933 10937 10938 10939 10943 10949 10956 10961 10963
10609 10623 10630 10640 10651 10663 10668 10678 10679 10694 10710 10718 10726 10739 10758 10761 10768 10779 10789 10797 10806 10818 10827 10835 10844 10852 10858 10866 10877 10886 10892 10899 10905 10907 10910 10914 10919 10923 10923 10927 10932 10937 10942 10946
10603 10610 10620 10626 10642 10649 10656 10662 10668 10681 10692 10700 10708 10719 10735 10742 10755 10761 10767 10777 10785 10796 10804 10812 10821 10829 10837 10845 10852 10866 10873 10882 10886 10888 10896 10895 10901 10904 10908 10907 10910 10917 10922 10926
10592 10599 10606 10612 10627 10636 10640 10649 10655 10662 10673 10681 10688 10699 10712 10722 10734 10740 10750 10755 10765 10772 10781 10789 10798 10806 10813 10823 10831 10841 10849 10858 10862 10868 10871 10877 10881 10883 10887 10890 10894 10898 10902 10904
10585 10589 10594 10602 10610 10616 10625 10637 10641 10648 10656 10664 10672 10680 10691 10700 10712 10720 10727 10735 10743 10749 10756 10765 10774 10781 10790 10799 10806 10816 10823 10830 10837 10843 10850 10854 10860 10862 10864 10866 10870 10872 10879 10882
10579 10582 10586 10591 10596 10605 10614 10618 10627 10635 10640 10646 10654 10661 10669 10677 10687 10696 10705 10712 10719 10725 10734 10742 10750 10757 10765 10774 10782 10790 10797 10804 10809 10815 10822 10826 10832 10839 10843 10846 10848 10851 10855 10858